Dallas/Ft Worth, TX

11:50 PM CST on December 12, 2019 (GMT -0600)
Dallas-Fort Worth International

Weather History for KDFW - November, 2019

Change the Weather History Date:

Sunday, November 17, 2019

  Actual Average Record
Temperature  
Mean Temperature 53 °F 56 °F  
Max Temperature 68 °F 66 °F 87 °F (1938)
Min Temperature 38 °F 46 °F 20 °F (1959)
Degree Days  
Heating Degree Days 12 10  
Month to date heating degree days 232 122  
Since 1 July heating degree days 380 194  
Cooling Degree Days 0 1  
Month to date cooling degree days 4 25  
Year to date cooling degree days 3002 2748  
Growing Degree Days 3 (Base 50)    
Moisture  
Dew Point 38 °F    
Average Humidity 57    
Maximum Humidity 82    
Minimum Humidity 37    
Precipitation  
Precipitation 0.00 in 0.08 in 1.71 in (2004)
Month to date precipitation 0.75 1.72  
Year to date precipitation 32.30 32.60  
Snow  
Snow 0.00 in 0.00 in 0.00 in ()
Month to date snowfall 0.0 0.0  
Since 1 July snowfall 0.0 0.0  
Since 1 September snowfall 0.0 0.0  
Snow Depth 0.00 in    
Sea Level Pressure  
Sea Level Pressure 30.01 in    
Wind  
Wind Speed 6 mph ()    
Max Wind Speed 13 mph    
Max Gust Speed 16 mph    
Visibility 10.0 miles    
Events      
T = Trace of Precipitation, MM = Missing Value Source: Averaged Metar Reports

Daily Weather History Graph

Daily Weather History Graph

Search for Another Location

Airport or City:

Astronomy

Nov. 17, 2019 Rise Set
Actual Time 7:00 AM CST 5:25 PM CST
Civil Twilight 6:33 AM CST 5:51 PM CST
Nautical Twilight 6:04 AM CST 6:21 PM CST
Astronomical Twilight 5:34 AM CST 6:51 PM CST
Moon 10:07 PM CST (11/17) 11:42 AM CST (11/17)
Length of Visible Light 11h 18m
Length of Day
10h 25m
Waning Gibbous, 73% of the Moon is Illuminated
Nov 17
Waning Gibbous
Nov 19
Last Quarter
Nov 26
New
Dec 4
First Quarter
Dec 11
Full

Hourly Weather History & Observations

Time (CST) Temp. Windchill Dew Point Humidity Pressure Visibility Wind Dir Wind Speed Gust Speed Precip Events Conditions
12:53 AM 46.0 °F 43.1 °F 35.1 °F 66% 30.04 in 10.0 mi South 5.8 mph - N/A   Mostly Cloudy
1:53 AM 45.0 °F 42.6 °F 35.1 °F 68% 30.05 in 10.0 mi SSE 4.6 mph - N/A   Mostly Cloudy
2:53 AM 43.0 °F 38.8 °F 34.0 °F 71% 30.04 in 10.0 mi SE 6.9 mph - N/A   Mostly Cloudy
3:53 AM 42.1 °F 39.2 °F 34.0 °F 73% 30.03 in 10.0 mi ESE 4.6 mph - N/A   Scattered Clouds
5:53 AM 39.0 °F 35.7 °F 34.0 °F 82% 30.03 in 10.0 mi ESE 4.6 mph - N/A   Partly Cloudy
6:53 AM 39.0 °F 35.7 °F 33.1 °F 79% 30.04 in 10.0 mi SE 4.6 mph - N/A   Partly Cloudy
7:53 AM 42.1 °F 40.2 °F 36.0 °F 79% 30.05 in 10.0 mi SE 3.5 mph - N/A   Partly Cloudy
8:53 AM 48.9 °F - 37.9 °F 66% 30.05 in 10.0 mi South 10.4 mph - N/A   Partly Cloudy
9:53 AM 55.0 °F - 39.9 °F 57% 30.05 in 10.0 mi SSW 8.1 mph - N/A   Partly Cloudy
10:53 AM 60.1 °F - 39.9 °F 47% 30.03 in 10.0 mi WSW 6.9 mph - N/A   Partly Cloudy
11:53 AM 64.0 °F - 39.9 °F 41% 30.02 in 10.0 mi West 8.1 mph - N/A   Partly Cloudy
12:53 PM 64.9 °F - 39.9 °F 40% 29.99 in 10.0 mi North 8.1 mph - N/A   Partly Cloudy
1:53 PM 66.0 °F - 39.9 °F 38% 29.96 in 10.0 mi Calm Calm - N/A   Partly Cloudy
2:53 PM 66.9 °F - 41.0 °F 39% 29.95 in 10.0 mi NNW 10.4 mph - N/A   Partly Cloudy
3:53 PM 66.9 °F - 41.0 °F 39% 29.95 in 10.0 mi North 11.5 mph - N/A   Partly Cloudy
4:53 PM 64.0 °F - 41.0 °F 43% 29.96 in 10.0 mi NNE 5.8 mph - N/A   Partly Cloudy
5:53 PM 60.1 °F - 41.0 °F 49% 29.98 in 10.0 mi North 4.6 mph - N/A   Partly Cloudy
6:53 PM 59.0 °F - 41.0 °F 51% 30.00 in 10.0 mi NW 8.1 mph - N/A   Clear
7:53 PM 57.0 °F - 39.9 °F 53% 30.01 in 10.0 mi NW 8.1 mph - N/A   Clear
8:53 PM 57.0 °F - 39.0 °F 51% 30.01 in 10.0 mi NW 8.1 mph - N/A   Clear
9:53 PM 54.0 °F - 39.0 °F 57% 30.01 in 10.0 mi NW 11.5 mph - N/A   Clear
10:53 PM 51.1 °F - 39.0 °F 63% 30.01 in 10.0 mi NNW 10.4 mph - N/A   Clear
11:53 PM 48.9 °F - 39.0 °F 69% 29.99 in 10.0 mi NNW 10.4 mph - N/A   Clear